Regional Weather Roundup
Issued by NWS

Home | Current Version | Previous Version | Text Only | Print | Product List | Glossary Off
Versions: 1 2 3 4 5 6 7 8 9 10 11 12 13 14 15 16 17 18 19 20 21 22 23 24 25 26 27 28

000
ASUS45 KBOI 260610
RWRID

IDAHO REGIONAL WEATHER ROUNDUP
NATIONAL WEATHER SERVICE BOISE ID
1200 AM MDT FRI MAY 26 2017

NOTE: "FAIR" INDICATES FEW OR NO CLOUDS BELOW 12000 FEET
WITH NO SIGNIFICANT WEATHER AND/OR OBSTRUCTIONS TO VISIBILITY

IDZ012-014-260700-
SOUTHWEST IDAHO


CITY           SKY/WX    TMP DP  RH WIND       PRES   REMARKS
BOISE          CLOUDY    53  41  63 NW10      29.77S
CALDWELL       CLOUDY    53  43  68 W9        29.79R
MOUNTAIN HOME  CLOUDY    54  38  55 NW13      29.78R
$$

IDZ016-017-260700-
SOUTHCENTRAL IDAHO


CITY           SKY/WX    TMP DP  RH WIND       PRES   REMARKS
BURLEY         CLOUDY    54  40  59 SW6       29.79R
JEROME         CLOUDY    53  36  52 NW9       29.81R
TWIN FALLS     CLOUDY    52  35  52 W8        29.81R
$$

IDZ019>023-260700-
SOUTHEAST IDAHO


CITY           SKY/WX    TMP DP  RH WIND       PRES   REMARKS
IDAHO FALLS    CLEAR     47  36  65 N3        29.81F
POCATELLO      CLEAR     44  31  60 E3        29.78F
REXBURG        CLEAR     48  30  49 NE8       29.82F
$$

IDZ006-010-011-018-031-032-260700-
CENTRAL IDAHO MOUNTAINS


CITY           SKY/WX    TMP DP  RH WIND       PRES   REMARKS
MCCALL         LGT RAIN  42  38  85 N7        29.81F
HAILEY         MOCLDY    45  32  61 NW3       29.83S
STANLEY          N/A     39  37  92 CALM      29.85S
SALMON         CLOUDY    50  39  66 CALM      29.85R
CHALLIS        MOCLDY    44  39  82 NW10      29.84S
$$

IDZ002-004-006-007-026-260700-
NORTHERN IDAHO


CITY           SKY/WX    TMP DP  RH WIND       PRES   REMARKS
LEWISTON       MOCLDY    53  43  68 S7        29.85R
LOWELL           N/A     49  44  83 CALM      29.86R
COEUR D`ALENE  PTCLDY    52  42  69 SE3       29.87R
MULLAN PASS    PTCLDY    40  33  76 N7        29.91R
$$




USA.gov is the U.S. government's official web portal to all federal, state and local government web resources and services.